| time (UTC) | temp C | wind direction | speed KPH | gust KPH | rain 1hr cm | rain 24hr cm | rain mn cm | humidity % | barometer mb |
| 20260505162941 | 17 | 25 | 4.8 | 16.1 | 0.00 | 0.00 | 0.00 | 37 | 1014.2 |
| 20260505161442 | 17 | 46 | 3.2 | 14.5 | 0.00 | 0.00 | 0.00 | 38 | 1014.2 |
| 20260505152941 | 16 | 90 | 4.8 | 12.9 | 0.00 | 0.00 | 0.00 | 40 | 1014.1 |
| 20260505151442 | 16 | 84 | 8.0 | 19.3 | 0.00 | 0.00 | 0.00 | 40 | 1014.0 |
| 20260505124445 | 12 | 150 | 0.0 | 4.8 | 0.00 | 0.00 | 0.00 | 53 | 1012.9 |
| 20260505122942 | 12 | 145 | 1.6 | 6.4 | 0.00 | 0.00 | 0.00 | 52 | 1012.8 |
| 20260505121442 | 12 | 149 | 1.6 | 8.0 | 0.00 | 0.00 | 0.00 | 51 | 1012.5 |
| 20260505115942 | 12 | 96 | 1.6 | 8.0 | 0.00 | 0.00 | 0.00 | 50 | 1012.3 |
| 20260505114443 | 12 | 81 | 3.2 | 8.0 | 0.00 | 0.00 | 0.00 | 50 | 1012.2 |
| 20260505112942 | 12 | 118 | 1.6 | 9.7 | 0.00 | 0.00 | 0.00 | 51 | 1012.1 |
| 20260505111444 | 12 | 272 | 0.0 | 3.2 | 0.00 | 0.00 | 0.00 | 55 | 1012.0 |
| 20260505101446 | 13 | 133 | 3.2 | 6.4 | 0.00 | 0.00 | 0.00 | 51 | 1011.7 |
| 20260505095944 | 13 | 280 | 1.6 | 4.8 | 0.00 | 0.00 | 0.00 | 54 | 1011.5 |
| 20260505094442 | 12 | 63 | 1.6 | 8.0 | 0.00 | 0.00 | 0.00 | 54 | 1011.4 |
| 20260505092942 | 11 | 97 | 0.0 | 3.2 | 0.00 | 0.00 | 0.00 | 63 | 1011.3 |
| 20260505091443 | 10 | 256 | 0.0 | 1.6 | 0.00 | 0.00 | 0.00 | 69 | 1011.3 |
| 20260505085944 | 10 | 153 | 0.0 | 0.0 | 0.00 | 0.00 | 0.00 | 70 | 1011.1 |
| 20260505084444 | 10 | 135 | 0.0 | 1.6 | 0.00 | 0.00 | 0.00 | 70 | 1011.0 |
| 20260505082942 | 10 | 192 | 0.0 | 1.6 | 0.00 | 0.00 | 0.00 | 71 | 1011.0 |
| 20260505081443 | 10 | 200 | 0.0 | 1.6 | 0.00 | 0.00 | 0.00 | 71 | 1010.9 |
| 20260505075945 | 10 | 316 | 0.0 | 4.8 | 0.00 | 0.00 | 0.00 | 71 | 1010.8 |
| 20260505074443 | 10 | 137 | 0.0 | 1.6 | 0.00 | 0.00 | 0.00 | 70 | 1010.6 |
| 20260505072943 | 10 | 226 | 0.0 | 1.6 | 0.00 | 0.00 | 0.00 | 68 | 1010.5 |
| 20260505071443 | 11 | 148 | 0.0 | 1.6 | 0.00 | 0.00 | 0.00 | 69 | 1010.4 |
| 20260505065943 | 11 | 245 | 0.0 | 4.8 | 0.00 | 0.00 | 0.00 | 68 | 1010.1 |
| 20260505064443 | 11 | 167 | 0.0 | 1.6 | 0.00 | 0.00 | 0.00 | 69 | 1009.9 |
| 20260505062943 | 11 | 159 | 0.0 | 1.6 | 0.00 | 0.00 | 0.00 | 69 | 1009.8 |
| 20260505061447 | 11 | 167 | 1.6 | 1.6 | 0.00 | 0.00 | 0.00 | 67 | 1009.8 |
| 20260505055943 | 11 | 153 | 0.0 | 0.0 | 0.00 | 0.00 | 0.00 | 67 | 1009.8 |
| 20260505054443 | 12 | 143 | 0.0 | 1.6 | 0.00 | 0.00 | 0.00 | 65 | 1009.7 |
| 20260505052944 | 12 | 146 | 0.0 | 0.0 | 0.00 | 0.00 | 0.00 | 64 | 1009.6 |
| 20260505051446 | 13 | 146 | 0.0 | 0.0 | 0.00 | 0.00 | 0.00 | 62 | 1009.5 |
| 20260505041447 | 16 | 180 | 0.0 | 3.2 | 0.00 | 0.00 | 0.00 | 48 | 1009.0 |
| 20260505035946 | 17 | 209 | 0.0 | 3.2 | 0.00 | 0.00 | 0.00 | 44 | 1008.9 |
| 20260505034444 | 18 | 134 | 0.0 | 0.0 | 0.00 | 0.00 | 0.00 | 40 | 1008.8 |
| 20260505032943 | 20 | 134 | 0.0 | 1.6 | 0.00 | 0.00 | 0.00 | 37 | 1008.5 |
| 20260505031445 | 21 | 72 | 1.6 | 4.8 | 0.00 | 0.00 | 0.00 | 32 | 1008.4 |
| 20260505025943 | 21 | 124 | 1.6 | 11.3 | 0.00 | 0.00 | 0.00 | 31 | 1008.1 |
| 20260505024444 | 22 | 40 | 1.6 | 9.7 | 0.00 | 0.00 | 0.00 | 30 | 1008.1 |
| 20260505022944 | 22 | 105 | 3.2 | 9.7 | 0.00 | 0.00 | 0.00 | 28 | 1008.1 |
| 20260505021444 | 23 | 127 | 4.8 | 14.5 | 0.00 | 0.00 | 0.00 | 27 | 1008.1 |
| 20260505015946 | 23 | 118 | 4.8 | 12.9 | 0.00 | 0.00 | 0.00 | 27 | 1008.0 |
| 20260505014443 | 23 | 46 | 6.4 | 19.3 | 0.00 | 0.00 | 0.00 | 26 | 1007.9 |
| 20260505012944 | 23 | 110 | 3.2 | 16.1 | 0.00 | 0.00 | 0.00 | 26 | 1008.1 |
| 20260505011446 | 24 | 75 | 4.8 | 17.7 | 0.00 | 0.00 | 0.00 | 26 | 1008.2 |
| 20260505005945 | 24 | 79 | 6.4 | 16.1 | 0.00 | 0.00 | 0.00 | 27 | 1008.0 |
| 20260505004445 | 24 | 84 | 8.0 | 19.3 | 0.00 | 0.00 | 0.00 | 26 | 1008.1 |
| 20260505002944 | 25 | 125 | 8.0 | 22.5 | 0.00 | 0.00 | 0.00 | 26 | 1008.1 |
| 20260505001446 | 25 | 193 | 4.8 | 11.3 | 0.00 | 0.00 | 0.00 | 27 | 1008.1 |
| 20260504235946 | 25 | 23 | 6.4 | 12.9 | 0.00 | 0.00 | 0.00 | 26 | 1008.1 |
| 20260504234445 | 25 | 115 | 1.6 | 14.5 | 0.00 | 0.00 | 0.00 | 27 | 1008.1 |
| 20260504232944 | 25 | 212 | 4.8 | 14.5 | 0.00 | 0.00 | 0.00 | 26 | 1008.0 |
| 20260504231444 | 25 | 213 | 3.2 | 12.9 | 0.00 | 0.00 | 0.00 | 25 | 1008.0 |
| 20260504225945 | 26 | 66 | 3.2 | 8.0 | 0.00 | 0.00 | 0.00 | 26 | 1008.2 |
| 20260504224445 | 25 | 113 | 4.8 | 19.3 | 0.00 | 0.00 | 0.00 | 27 | 1008.3 |
| 20260504222946 | 25 | 44 | 8.0 | 19.3 | 0.00 | 0.00 | 0.00 | 27 | 1008.5 |
| 20260504221443 | 26 | 114 | 6.4 | 16.1 | 0.00 | 0.00 | 0.00 | 26 | 1008.3 |
| 20260504215945 | 25 | 58 | 3.2 | 8.0 | 0.00 | 0.00 | 0.00 | 28 | 1008.5 |
| 20260504214445 | 25 | 58 | 4.8 | 12.9 | 0.00 | 0.00 | 0.00 | 27 | 1008.5 |
| 20260504212947 | 25 | 43 | 4.8 | 9.7 | 0.00 | 0.00 | 0.00 | 26 | 1008.7 |
| 20260504211446 | 25 | 35 | 4.8 | 11.3 | 0.00 | 0.00 | 0.00 | 28 | 1008.9 |
| 20260504205946 | 25 | 47 | 3.2 | 11.3 | 0.00 | 0.00 | 0.00 | 29 | 1008.8 |
| 20260504204445 | 25 | 137 | 3.2 | 17.7 | 0.00 | 0.00 | 0.00 | 28 | 1008.9 |
| 20260504202945 | 25 | 130 | 4.8 | 12.9 | 0.00 | 0.00 | 0.00 | 27 | 1008.9 |
| 20260504201446 | 25 | 83 | 3.2 | 12.9 | 0.00 | 0.00 | 0.00 | 29 | 1009.0 |
| 20260504195946 | 24 | 143 | 3.2 | 11.3 | 0.00 | 0.00 | 0.00 | 29 | 1009.0 |
| 20260504194445 | 24 | 12 | 4.8 | 16.1 | 0.00 | 0.00 | 0.00 | 31 | 1009.0 |
| 20260504192947 | 23 | 58 | 6.4 | 16.1 | 0.00 | 0.00 | 0.00 | 32 | 1009.1 |
| 20260504191447 | 23 | 148 | 4.8 | 11.3 | 0.00 | 0.00 | 0.00 | 32 | 1009.4 |
| 20260504185947 | 23 | 120 | 6.4 | 14.5 | 0.00 | 0.00 | 0.00 | 32 | 1009.5 |
| 20260504184446 | 23 | 42 | 4.8 | 9.7 | 0.00 | 0.00 | 0.00 | 33 | 1009.7 |
| 20260504182944 | 22 | 50 | 6.4 | 16.1 | 0.00 | 0.00 | 0.00 | 32 | 1009.6 |
| 20260504181446 | 22 | 146 | 4.8 | 16.1 | 0.00 | 0.00 | 0.00 | 36 | 1009.6 |
| 20260504175948 | 21 | 58 | 4.8 | 17.7 | 0.00 | 0.00 | 0.00 | 35 | 1009.7 |
| 20260504174448 | 21 | 351 | 3.2 | 11.3 | 0.00 | 0.00 | 0.00 | 36 | 1009.6 |
| 20260504172945 | 21 | 49 | 3.2 | 11.3 | 0.00 | 0.00 | 0.00 | 37 | 1009.7 |
| 20260504171446 | 20 | 47 | 4.8 | 14.5 | 0.00 | 0.00 | 0.00 | 42 | 1009.7 |